SL-19 DEB, 23480

Orbit data source: Space-Track

SL-19 DEB, 23480 is space debris in LEO originally from a launch on Mon, 26 Dec 1994 UTC launched from the Tyuratam Missile And Space Complex (TTMTR). Debris objects in space refer to the collection of defunct objects orbiting the Earth. Examples of debris include non-operational satellites, rocket bodies, and fragments generated from explosions, collisions, or faulty payload assembly.

Loading next visibility...
Identifier
23480, 1994-085D
Orbit
LEO
Country
Flag of CISCIS
Related business
Manufacturer
Unknown
Mission
Spacecraft
Bus & Motor
Unknown
Mass
Unknown
Launch date (UTC)
1994-12-26 (31 years ago)
Launch vehicle
Unknown
Launch site
Tyuratam Missile And Space Complex (TTMTR)
Object type
Payload
Rocket body
Debris
Shape & HBR
Unknown shape, 0.2 m
Radar Cross Section
Medium (>0.1 m² and <1 m²)

Expand to show TLE details & history
Last TLE update: 2 days ago

TLE from 2 days ago
0 SL-19 DEB
1 23480U 94085D   25307.96443955 -.00000150  00000-0 -23250-2 0  9997
2 23480  64.6996 144.0708 0227126 177.8716 336.9827 11.46033097551519
Epoch: 2025-11-03T23:08Z
TLE epoch observation values (Epoch: 2025-11-03T23:08:47.577Z)
Latitude
23.5532°
Longitude
-78.41975°
Altitude
1,760.543 km
Speed
7.074 km/s
True Right ascension
20h 48m 56s
True Declination
23° 26' 35"
Sunlit
Object was in daylight at epoch
Visualization orbit readout
Latitude
Unknown
Longitude
Unknown
Altitude
Unknown
Speed
Unknown
Apparent Right ascension
Unknown
Apparent Declination
Unknown
Sunlit
N/A
Visualization observer readout
Local Sidereal Time
05:50:58
Azimuth
Unknown
Elevation
Unknown
Doppler factor
Unknown
Orbital elements
Apogee altitude
2,119.437 km
Perigee altitude
1,742.005 km
Semi-major axis
8,308.858 km
Eccentricity
0.02271
Inclination
64.6996°
RAAN
144.0708°
Arg. of periapsis
177.8716°
True anomaly
335.93781°
Mean anomaly
336.9827°
Eccentric anomaly
336.46302°
Mean motion
2.8657 °/min
Orbital period
125.62 mins
BSTAR
-0.002325
Loading maneuver chart data...
Computing Atmospheric mass density...
Loading historical data...
Loading historical data...
Loading historical data...
Loading historical data...
Loading historical data...
Loading historical data...
Loading historical data...

Documentation

Showing up to 5 results
|